Theta_e
336 338 338 339 338 339 338 339 333 330 331 333 334 335 334 333 332 329 329 329 328 329 328 328 327 327 327 326 326 326 328 330 331 333 333 332 333 333 331 327 327 328 327
335 338 338 338 338 339 338 337 334 335 335 334 332 333 334 333 331 330 329 327 328 328 327 327 326 325 325 327 322 324 328 331 330 329 330 329 330 330 328 326 327 326 325
335 338 338 338 338 339 337 335 333 333 334 334 332 333 334 331 330 328 328 327 327 326 326 327 326 326 325 327 325 324 325 329 328 327 326 328 328 328 327 326 326 325 323
336 338 338 338 338 338 335 333 332 333 333 334 333 332 333 331 330 332 327 327 326 326 326 326 326 325 323 324 324 326 325 325 327 325 325 325 325 326 325 325 324 323 323
336 337 338 338 337 336 334 334 332 331 332 330 333 333 332 331 329 329 327 326 327 326 326 326 325 325 325 324 325 325 326 326 326 324 324 323 324 324 324 322 322 321 321
336 337 338 338 337 335 334 335 334 332 333 331 330 334 332 330 328 328 326 326 325 325 325 325 325 324 323 323 324 326 326 327 327 325 323 322 322 323 322 320 321 320 320
335 337 337 337 336 334 334 335 334 332 331 330 328 335 332 330 325 326 326 325 325 325 325 325 324 324 324 324 326 326 325 327 325 324 323 321 322 321 321 320 320 320 320
335 336 336 337 335 334 334 333 332 331 330 329 329 328 333 329 325 326 326 325 324 324 324 324 323 324 323 324 325 325 322 322 321 321 321 321 321 321 320 319 319 319 318
335 336 335 336 335 335 334 331 331 330 329 328 328 330 327 328 327 326 325 325 325 325 325 323 321 323 322 323 321 323 324 322 322 321 320 320 320 322 320 319 318 318 318
335 335 335 335 335 335 333 330 331 330 329 328 327 328 326 326 327 326 325 323 325 325 324 318 316 318 321 323 323 321 322 322 322 321 321 320 321 321 320 319 318 318 317
336 335 335 335 334 334 333 331 331 330 329 328 327 325 327 325 327 326 326 324 324 324 323 318 316 315 318 322 322 322 322 322 322 322 321 319 320 322 320 318 317 317 316
337 336 335 335 335 334 333 332 331 331 329 329 327 325 326 326 325 326 326 324 324 323 323 320 316 316 316 321 321 321 322 322 321 321 319 318 319 322 321 318 317 317 316
336 336 336 336 335 334 334 333 332 331 330 329 328 326 324 324 324 325 326 325 324 324 323 323 317 316 316 317 321 320 320 320 320 319 318 318 318 322 321 319 318 317 316
335 336 336 336 335 335 334 334 333 332 331 330 328 327 326 324 323 323 325 325 324 324 323 322 320 317 316 316 316 319 319 319 318 318 319 318 316 319 322 320 319 318 317
334 334 334 335 336 335 335 335 334 332 331 331 330 328 326 325 324 322 321 323 324 324 323 323 322 320 317 316 316 317 318 319 319 319 318 319 317 316 321 321 320 319 318
330 332 333 334 334 335 335 335 335 334 332 331 331 330 328 326 325 325 323 321 323 323 323 323 323 322 321 318 317 316 318 319 320 320 319 319 319 317 315 321 321 320 319
320 321 324 326 330 333 334 335 335 335 333 332 331 330 330 329 327 326 325 323 321 321 322 322 323 323 323 322 319 317 317 318 319 320 320 320 319 318 317 316 321 321 321
319 319 320 321 322 326 331 332 333 335 334 333 332 331 330 330 330 328 326 325 324 322 321 322 322 322 323 322 321 317 317 317 318 319 319 319 319 319 319 317 317 319 321
317 318 319 319 320 323 326 330 331 333 333 332 331 332 332 331 330 330 328 327 326 324 321 321 321 321 321 321 322 321 318 317 318 319 320 319 319 319 319 319 318 317 317
314 315 316 317 318 319 323 327 330 331 331 331 331 331 331 332 331 329 329 328 327 325 323 322 321 320 321 320 320 320 320 319 318 319 320 320 320 320 320 320 320 320 319
311 312 313 315 316 318 323 328 329 329 330 330 331 330 330 329 331 331 330 328 327 326 325 324 322 320 320 320 319 320 318 318 318 318 318 319 320 320 320 320 320 320 320
309 310 311 312 313 315 318 323 326 327 328 328 329 329 331 329 330 330 330 328 326 325 324 324 322 321 320 320 319 319 320 318 318 318 318 318 317 318 319 319 320 320 320
307 309 310 310 311 313 314 320 326 327 328 328 328 328 329 329 328 328 329 328 326 325 324 324 323 321 321 320 319 320 320 320 316 316 317 317 318 318 318 318 318 318 320
304 306 310 313 314 312 313 320 325 327 327 327 327 328 328 328 328 327 327 327 326 326 324 324 323 322 321 322 318 319 320 319 319 319 315 316 317 317 317 317 317 317 318
301 303 304 305 313 319 320 318 323 326 327 327 327 327 327 327 327 327 326 326 326 325 325 324 323 322 322 321 322 320 318 319 319 318 320 318 316 316 316 316 317 318 318
299 301 301 301 302 306 315 319 322 325 327 327 327 327 327 327 327 327 327 326 325 325 325 324 324 323 322 321 321 322 320 319 319 319 319 318 317 316 316 316 316 317 317
Wind_Speed
12 13 13 14 14 14 14 14 13 12 12 13 13 14 14 14 13 14 15 13 14 13 14 14 14 14 14 12 11 13 16 15 14 22 20 20 21 20 17 16 16 16 17
16 15 14 13 13 14 12 11 10 10 12 11 11 12 13 14 14 14 15 14 12 13 13 13 13 13 12 12 12 13 15 16 19 20 19 18 18 16 15 14 15 14 15
16 15 14 13 14 14 11 9 8 8 9 9 11 13 13 12 13 15 13 12 13 12 12 11 12 12 11 14 11 11 11 13 15 16 17 16 14 13 13 12 12 13 14
15 14 14 13 12 12 10 10 10 8 7 9 10 11 11 12 13 12 14 12 12 11 11 11 12 11 10 12 10 7 7 9 10 8 11 12 12 12 11 11 11 12 13
14 12 11 12 13 12 10 9 8 7 6 6 10 10 10 10 11 13 11 11 11 11 11 11 13 10 9 8 7 6 6 7 8 9 13 10 10 9 10 10 10 11 12
14 13 11 12 12 11 9 7 6 5 6 6 8 10 10 10 11 14 11 11 10 10 11 11 11 8 8 7 6 8 6 6 7 8 6 6 6 7 8 9 10 10 11
16 14 13 13 11 10 8 7 6 6 8 7 7 10 10 10 8 13 12 11 10 10 10 9 11 10 9 7 6 8 7 7 7 5 6 5 4 6 6 7 8 9 9
15 15 14 14 13 12 10 9 8 8 8 10 8 8 9 7 7 11 11 11 10 11 10 9 11 11 10 9 8 8 6 3 3 3 2 2 2 4 5 6 7 7 7
12 14 15 15 14 13 12 11 9 9 8 9 10 9 9 10 8 8 10 11 10 10 9 9 10 12 10 11 10 9 6 5 4 4 2 2 3 2 4 5 6 7 7
13 14 15 15 15 15 14 13 12 11 11 10 10 13 10 12 12 11 9 10 13 10 11 10 10 10 10 10 10 10 9 8 6 5 3 3 4 2 4 4 5 6 6
14 16 17 17 17 16 16 15 14 14 13 13 12 13 13 13 13 13 14 11 13 11 11 10 10 10 11 10 9 10 11 10 8 7 6 5 4 4 4 4 5 6 7
17 19 20 20 19 18 18 18 18 17 17 17 15 15 17 17 17 14 15 13 13 13 12 12 11 11 11 12 10 10 11 11 10 9 7 6 5 6 5 5 6 6 7
19 19 21 22 21 21 21 20 21 21 20 20 20 19 17 19 18 19 16 16 16 16 16 14 14 15 14 13 14 13 12 11 11 11 9 8 8 8 7 6 7 7 8
20 22 22 24 24 24 23 24 24 24 24 24 23 22 21 21 21 23 22 20 20 19 19 18 17 17 16 15 15 15 14 14 13 13 12 11 10 11 10 9 8 9 9
25 26 26 25 28 28 28 28 28 28 28 28 26 26 26 25 24 22 25 25 24 22 21 21 21 20 20 19 19 19 18 17 17 16 15 14 13 13 12 12 10 10 10
26 29 29 29 29 30 32 32 33 32 31 31 30 30 29 29 28 26 25 26 27 26 25 25 25 23 22 22 22 22 22 21 19 19 18 17 17 16 16 15 14 13 13
24 25 28 30 30 31 34 34 36 36 33 33 32 33 33 32 32 31 30 29 28 28 27 27 27 27 27 26 26 25 25 25 24 23 22 21 21 21 20 19 18 17 16
29 29 28 27 28 30 32 35 37 38 38 36 35 33 32 35 34 34 34 34 31 29 30 31 30 30 30 30 29 29 29 28 27 27 27 26 26 25 24 24 23 22 20
27 30 31 29 30 30 31 34 35 37 37 34 35 37 37 34 35 36 36 37 36 32 32 33 33 33 26 30 32 32 33 32 32 31 31 31 31 29 29 28 27 27 26
25 24 25 27 30 30 30 31 34 35 33 34 36 38 40 39 36 36 38 38 38 36 36 35 34 33 34 28 27 30 32 36 37 37 36 35 35 34 33 32 31 32 31
23 22 22 23 25 26 27 26 25 27 27 29 32 36 37 36 37 37 38 40 39 39 39 39 37 31 30 32 20 24 24 36 40 41 41 40 41 39 38 36 36 35 34
22 20 19 19 21 24 25 27 25 21 26 31 29 33 33 38 40 40 40 40 39 38 37 39 35 29 25 24 15 11 6 12 24 31 37 42 47 43 43 42 40 39 39
26 26 19 16 18 20 21 22 25 24 22 19 27 31 35 35 36 37 38 39 38 38 36 38 37 31 27 20 27 15 3 7 3 13 23 33 35 37 43 46 45 44 42
26 26 25 19 14 13 13 18 22 21 20 24 24 27 31 32 33 35 35 37 36 37 36 36 36 37 32 27 18 33 34 22 5 6 10 17 22 31 35 38 41 44 45
25 27 29 28 25 21 12 9 17 22 23 22 24 26 27 29 30 31 32 35 36 36 38 36 33 35 34 31 30 22 27 30 29 18 14 17 26 33 33 31 32 34 40
27 29 31 32 34 30 24 19 13 12 19 19 23 24 26 27 29 31 32 34 35 35 36 38 38 34 35 34 33 30 29 14 19 21 13 22 23 30 32 33 34 34 34
Wind_Direction
159 156 154 151 149 148 146 135 133 127 122 121 125 126 121 115 112 119 116 109 105 106 103 103 97 90 88 80 85 72 74 75 83 81 93 84 77 74 70 69 64 63 63
159 156 159 158 155 151 147 142 136 129 128 125 124 130 129 120 116 118 116 113 110 108 109 110 103 96 95 85 87 86 83 85 85 84 86 79 68 66 65 62 66 67 71
160 157 160 165 164 159 150 141 134 131 135 134 123 132 129 127 125 122 123 120 117 113 113 112 110 105 100 87 84 84 88 81 85 80 76 70 62 55 51 62 67 74 81
161 161 164 165 165 160 155 149 143 152 143 148 144 136 140 134 132 131 132 125 122 119 121 121 120 107 99 94 91 74 91 96 92 73 68 61 57 44 53 58 71 84 89
161 165 169 167 168 167 166 162 159 160 162 150 161 159 147 142 141 138 137 132 126 127 127 127 130 115 108 108 101 115 121 110 109 80 62 58 53 43 50 60 81 89 92
165 167 175 175 176 179 178 180 181 182 183 174 188 180 161 148 150 148 147 140 137 134 135 137 145 129 133 132 118 110 125 119 119 95 73 42 30 50 59 72 89 94 97
172 177 180 181 187 190 194 198 204 213 207 205 187 180 174 161 150 159 158 152 153 148 148 150 165 152 142 136 119 111 100 115 111 78 67 59 55 53 76 87 95 101 105
179 183 187 189 190 195 199 217 229 236 223 211 207 200 192 186 160 170 173 165 164 164 164 168 165 161 153 147 122 137 125 137 104 56 85 39 347 39 93 99 105 110 111
190 193 194 199 200 205 214 218 226 225 220 219 207 208 223 211 202 200 202 186 187 181 174 187 173 175 171 167 164 152 169 169 191 168 148 136 305 83 113 114 119 124 128
200 206 210 211 214 219 220 221 221 221 221 213 222 222 230 215 215 220 223 209 199 196 195 191 186 188 186 181 180 179 182 201 218 213 245 235 259 161 143 140 138 140 141
212 217 216 219 225 230 231 229 226 224 222 220 224 223 223 222 217 224 230 223 218 222 220 209 201 198 198 197 196 197 205 216 225 236 251 259 231 181 174 171 167 164 159
224 223 221 223 228 232 235 234 233 230 226 223 223 222 222 226 228 235 231 228 229 231 234 227 218 215 211 209 208 210 216 224 233 240 250 242 219 202 195 192 187 182 175
245 242 233 234 235 234 237 240 239 236 233 231 228 223 225 230 237 229 229 227 237 234 232 233 228 227 224 221 221 223 230 235 238 241 243 238 220 218 210 209 206 199 193
261 259 251 249 249 246 244 244 245 241 239 237 236 233 227 227 228 230 233 234 237 237 238 239 239 239 238 235 232 231 236 243 243 244 245 244 232 216 220 220 217 209 208
272 272 266 259 255 253 248 247 245 244 244 244 241 240 238 236 232 230 233 238 242 240 239 242 246 245 244 244 243 242 242 246 245 245 243 242 240 230 222 229 228 221 219
277 274 275 271 264 258 254 251 250 249 247 246 245 244 241 242 242 238 235 237 242 244 246 246 248 250 251 252 252 251 251 253 251 247 246 244 241 237 232 226 232 230 223
289 284 275 276 274 263 258 257 254 253 251 251 250 247 245 243 245 245 242 240 241 242 246 248 249 251 254 256 255 254 254 255 257 253 251 251 245 242 238 235 229 232 229
289 283 283 282 276 269 262 259 256 254 253 250 253 254 250 247 246 246 248 247 246 244 242 245 248 251 254 257 258 259 259 258 258 258 256 254 249 246 243 239 236 232 231
295 291 287 285 280 273 269 263 259 256 252 246 243 252 255 250 246 245 247 251 252 248 247 246 247 248 250 256 260 263 264 263 263 263 261 257 253 250 248 245 241 239 237
312 304 295 289 281 276 271 265 260 254 247 244 243 246 253 252 249 247 248 250 250 249 250 248 246 248 251 253 259 264 266 267 267 265 263 262 258 254 251 249 246 242 239
324 318 309 299 288 279 267 248 244 241 240 240 241 246 247 249 253 250 248 249 248 247 248 250 248 245 247 250 256 270 270 270 267 263 262 260 260 257 255 250 249 246 242
346 335 318 305 297 287 276 259 243 253 248 246 242 247 245 250 255 253 251 246 245 243 242 244 239 234 241 239 232 253 283 274 261 256 257 256 255 254 254 252 248 247 245
7 6 346 320 302 295 289 273 255 247 248 252 246 248 252 253 253 253 253 248 244 244 238 240 238 230 237 235 231 220 239 243 326 249 248 250 248 246 250 252 251 248 246
12 23 26 22 2 319 297 272 248 242 241 247 249 257 263 264 261 255 254 253 243 243 240 238 237 235 228 233 227 224 236 254 268 289 250 254 255 253 254 254 254 251 248
25 31 37 39 42 36 26 316 274 254 255 261 263 262 262 268 268 267 258 254 249 241 246 245 237 234 231 232 227 226 227 237 245 249 272 256 258 259 263 264 260 255 251
30 36 32 36 43 46 49 49 30 315 288 278 273 270 270 268 268 268 266 258 251 246 245 247 246 239 237 233 233 230 224 221 224 234 243 259 256 256 252 253 253 254 252